CZ-6A DEB

Satellite information

Favourite Embed

Satellite Type and Status

DEBRISIN ORBIT

Key statistics

Satellite CZ-6A DEB at a glance.

Uptime

495

Days in orbit

Revolutions

≈ 14.3

Per day

Orbit

LEO

Low Earth Orbit

Inclination

89.2

Latest

Satellite identification and parameters

Extended collection of information and parameters for CZ-6A DEB.

Object identification

Identified? True

Debris? True

Object name: CZ-6A DEB

International designator: 2024-140ACG

Object number (NORAD): 61816

Object ID (CCSDS): 61816

Country: PEOPLES REPUBLIC OF CHINA (PRC)

Current information (Y/N): Y

RCS size: SMALL

Orbital parameters

Period: 100.743 minutes

Inclination: 89.1608 deg

SMA: 7171.958 km

Apoapsis: 841.938 km

Periapsis: 745.709 km

RAAN: 304.5154 deg

Eccentricy: 0.00670876

Argument of periapsis: 121.6135 deg

Mean anomaly: 239.1631 deg

Mean motion: 14.29374769 rev/day

Mean motion (dot): 0.00005648 rev/day2

B* drag term: 0.0021580536 1/REarth

Two-line elements (TLE)

Creation date: Dec. 12, 2025, 3:16 a.m.

Reference frame: TEME

Reference center: EARTH

Epoch: Dec. 11, 2025, 3:21 p.m. UTC

TLE line 0: 0 CZ-6A DEB

TLE line 1: 1 61816U 24140ACG 25345.63978678 .00005648 00000-0 21581-2 0 9998

TLE line 2: 2 61816 89.1608 304.5154 0067088 121.6135 239.1631 14.29374769 65396

Live tracking on map

Real-time ground track for satellite CZ-6A DEB.

In-orbit conjunctions

A list of the most updated potential collisions computed for object CZ-6A DEB.

Target Orbit TCA Probability of collision Miss distance Type
DELTA 1 DEB SSO 2025-11-18 23:35:56 0.0002039473 54.0 (m) DEBRIS
THORAD DELTA 1 DEB SSO 2025-01-23 20:42:55 0.000126592 363.0 (m) DEBRIS
FENGYUN 1C DEB SSO 2025-01-18 18:52:00 0.0001365866 174.0 (m) DEBRIS
FENGYUN 1C DEB SSO 2025-01-06 06:12:04 0.0003868499 166.0 (m) DEBRIS
CZ-6A DEB LEO 2025-01-03 14:17:26 0.0001499857 344.0 (m) DEBRIS

Associated space launch

18 Low Earth Orbit communication satellites with Ku, Q and V band payloads for the G60 constellation operated by Shanghai Spacecom Satellite Technology (SSST) with funding backed by the Shanghai local government. Initial constellation will consist of 1296 satellites by 2027 with long term plans to expand it to 12000 satellites.

CZ-6A DEB was lifted into orbit during the mission ‘Long March 6A | G60 Polar Group 01’, on board a Long March 6A space rocket.

The launch took place on Aug. 6, 2024, 6:42 a.m. from Launch Complex 9A.

For more information about the launch, click the button.

Launch to space Long March 6A | G60 Polar Group 01
Long March 6A | G60 Polar Group 01

Agency: N/A

Status: Launch Successful

Launch date: Aug. 6, 2024, 6:42 a.m. UTC

Rocket: Long March 6A

Launch pad: Launch Complex 9A

Location: Taiyuan Satellite Launch Center, People's Republic of China

...

Latest news about this satellite

News about space launch
Brightness of first Chinese broadband constellation satellites alarms astronomers

The first satellites of a Chinese broadband constellation are significantly brighter than those of Western systems, posing a new challenge for astronomers.

News about space launch
Chinese rocket stage breaks up into cloud of more than 700 pieces of space debris

HELSINKI — A Chinese Long March 6A rocket’s upper stage has fragmented into a cloud of over 700 pieces of space debris, adding to concerns about long-term orbital safety. China […]

News about space launch
China's Thousand Sails Megaconstellation Kicks Off with Dangerous Debris Field

China's Thousand Sails Megaconstellation Kicks Off with Dangerous Debris Field


Newsletter sign-up

Weekly statistics, charts and insights to help you stay on top of the space industry.